GW0064 Weather Reports


Display with metric or nautical units.
time (UTC)temp
F
wind
direction
speed
MPH
gust
MPH
rain 1hr
in
rain 24hr
in
rain mn
in
humidity
%
barometer
mb
20260831200003 0 246 7.0 12.0 0.00 0.01 0.00 1017.1
20260831195001 0 248 8.0 12.0 0.00 0.01 0.00 1017.2
20260831194502 0 235 7.0 14.0 0.00 0.01 0.00 1017.3
20260831193501 0 172 9.0 14.0 0.00 0.01 0.00 1017.5
20260831193000 0 271 7.0 13.0 0.00 0.01 0.00 1017.6
20260831192459 0 255 8.0 14.0 0.00 0.01 0.00 1017.6
20260831191959 0 181 9.0 14.0 0.00 0.01 0.00 1017.8
20260831191459 0 213 8.0 13.0 0.00 0.01 0.00 1017.8
20260831191001 0 236 5.0 11.0 0.00 0.01 0.00 1017.9
20260831190459 0 221 7.0 14.0 0.00 0.01 0.00 1018.0
20260831190002 0 195 8.0 13.0 0.00 0.01 0.00 1018.0
20260831185000 0 271 7.0 15.0 0.00 0.01 0.00 1018.0
20260831184501 0 258 7.0 15.0 0.00 0.01 0.00 1018.1
20260831183959 0 207 8.0 15.0 0.00 0.01 0.00 1018.2
20260831183501 0 253 9.0 14.0 0.00 0.01 0.00 1018.2
20260831183001 0 238 11.0 14.0 0.00 0.01 0.00 1018.2
20260831182001 0 257 8.0 13.0 0.00 0.01 0.00 1018.4
20260831181502 0 241 8.0 15.0 0.00 0.01 0.00 1018.3
20260831181002 0 264 8.0 15.0 0.00 0.01 0.00 1018.5
20260831180459 0 239 7.0 13.0 0.00 0.01 0.00 1018.5
20260831180003 0 271 7.0 12.0 0.00 0.01 0.00 1018.5
20260831173959 0 173 7.0 14.0 0.00 0.01 0.00 1018.6
20260831173501 0 191 8.0 15.0 0.00 0.01 0.00 1018.6
20260831173001 0 218 8.0 15.0 0.00 0.01 0.00 1018.7
20260831172500 0 235 9.0 16.0 0.00 0.01 0.00 1018.8
20260831172000 0 242 9.0 16.0 0.00 0.01 0.00 1018.8
20260831171459 0 249 7.0 12.0 0.00 0.01 0.00 1018.8
20260831170004 0 252 7.0 13.0 0.00 0.01 0.00 1018.9
20260831165002 0 233 6.0 13.0 0.00 0.01 0.00 1019.0
20260831164459 0 221 6.0 13.0 0.00 0.01 0.00 1019.0
20260831163959 0 200 5.0 8.0 0.00 0.01 0.00 1019.0
20260831163459 0 217 5.0 8.0 0.00 0.01 0.00 1019.1
20260831163001 0 261 3.0 7.0 0.00 0.01 0.00 1019.1
20260831162500 0 201 4.0 7.0 0.00 0.01 0.00 1019.1
20260831161959 0 214 4.0 9.0 0.00 0.01 0.00 1019.1
20260831161501 0 246 5.0 9.0 0.00 0.01 0.00 1019.2
20260831161002 0 215 3.0 7.0 0.00 0.01 0.00 1019.1
20260831160459 0 239 3.0 7.0 0.00 0.01 0.00 1019.1
20260831160009 0 263 2.0 7.0 0.00 0.01 0.00 1019.1
20260831155459 0 225 4.0 7.0 0.00 0.01 0.00 1019.1
20260831154503 0 269 5.0 8.0 0.00 0.01 0.00 1019.1
20260831153959 0 242 6.0 8.0 0.00 0.01 0.00 1019.0
20260831153501 0 250 4.0 12.0 0.00 0.01 0.00 1019.1
20260831153000 0 224 7.0 12.0 0.00 0.01 0.00 1019.1
20260831152459 0 224 7.0 11.0 0.00 0.01 0.00 1019.1
20260831152000 0 233 5.0 9.0 0.00 0.01 0.00 1019.1
20260831151500 0 237 6.0 9.0 0.00 0.01 0.00 1019.0
20260831151000 0 226 5.0 8.0 0.00 0.01 0.00 1019.1
20260831150501 0 217 5.0 8.0 0.00 0.01 0.00 1019.1
20260831145502 0 196 4.0 9.0 0.00 0.01 0.00 1018.9
20260831145000 0 231 5.0 14.0 0.00 0.01 0.00 1018.9
20260831143959 0 217 5.0 9.0 0.00 0.01 0.00 1018.9
20260831143501 0 198 5.0 9.0 0.00 0.01 0.00 1018.9
20260831143001 0 233 5.0 8.0 0.00 0.01 0.00 1018.9
20260831142459 0 219 5.0 8.0 0.00 0.01 0.00 1018.8
20260831142001 0 213 5.0 10.0 0.00 0.01 0.00 1018.7
20260831141459 0 231 5.0 11.0 0.00 0.01 0.00 1018.8
20260831141001 0 230 5.0 11.0 0.00 0.01 0.00 1018.7
20260831140459 0 214 5.0 8.0 0.00 0.01 0.00 1018.6
20260831140003 0 226 4.0 9.0 0.00 0.01 0.00 1018.5
20260831135001 0 200 4.0 7.0 0.00 0.01 0.00 1018.7
20260831134000 0 206 4.0 7.0 0.00 0.01 0.00 1018.8
20260831133459 0 193 3.0 6.0 0.00 0.01 0.00 1018.8
20260831133000 0 204 2.0 5.0 0.00 0.01 0.00 1018.7
20260831132459 0 210 2.0 5.0 0.00 0.01 0.00 1018.6
20260831132001 0 183 3.0 5.0 0.00 0.01 0.00 1018.6
20260831131500 0 186 3.0 5.0 0.00 0.01 0.00 1018.5
20260831131001 0 177 2.0 4.0 0.00 0.01 0.00 1018.6
20260831130459 0 193 2.0 5.0 0.00 0.01 0.00 1018.6
20260831125459 0 186 3.0 5.0 0.00 0.01 0.00 1018.5
20260831125001 0 195 2.0 4.0 0.00 0.01 0.00 1018.4
20260831124000 0 194 3.0 6.0 0.00 0.01 0.00 1018.3
20260831123500 0 192 3.0 7.0 0.00 0.01 0.00 1018.2
20260831123000 0 181 3.0 7.0 0.00 0.01 0.00 1018.2
20260831121959 0 194 3.0 5.0 0.00 0.01 0.00 1018.0
20260831121459 0 199 2.0 7.0 0.00 0.01 0.00 1017.9
20260831120959 0 169 3.0 5.0 0.00 0.01 0.00 1017.9
20260831120500 0 184 2.0 5.0 0.00 0.01 0.00 1017.9
20260831120002 0 177 3.0 4.0 0.00 0.01 0.00 1017.9
20260831114959 0 188 1.0 3.0 0.00 0.01 0.00 1017.9
20260831114500 0 191 2.0 4.0 0.00 0.01 0.00 1017.8
20260831113959 0 181 1.0 4.0 0.00 0.01 0.00 1017.7
20260831113500 0 184 2.0 3.0 0.00 0.01 0.00 1017.8
20260831112959 0 191 2.0 3.0 0.00 0.01 0.00 1017.8
20260831112458 0 181 2.0 3.0 0.00 0.01 0.00 1017.9
20260831111958 0 191 1.0 3.0 0.00 0.01 0.00 1017.9
20260831111458 0 184 2.0 3.0 0.00 0.01 0.00 1017.8
20260831110959 0 184 2.0 3.0 0.00 0.01 0.00 1017.8
20260831110002 0 186 1.0 3.0 0.00 0.01 0.00 1017.7
20260831105458 0 187 1.0 3.0 0.00 0.01 0.00 1017.7
20260831105001 0 185 1.0 4.0 0.00 0.01 0.00 1017.7
20260831103958 0 179 1.0 4.0 0.00 0.01 0.00 1017.8
20260831103459 0 184 2.0 4.0 0.00 0.01 0.00 1017.8
20260831102458 0 180 2.0 3.0 0.00 0.01 0.00 1017.8
20260831101958 0 184 2.0 3.0 0.00 0.01 0.00 1017.8
20260831101458 0 186 1.0 3.0 0.00 0.01 0.00 1017.8
20260831100458 0 188 2.0 3.0 0.00 0.01 0.00 1017.6
20260831100000 0 181 1.0 2.0 0.00 0.01 0.00 1017.6
20260831095501 0 184 0.0 1.0 0.00 0.01 0.00 1017.6
20260831094958 0 184 0.0 1.0 0.00 0.01 0.00 1017.6
20260831093958 0 184 1.0 3.0 0.00 0.01 0.00 1017.6
20260831093501 0 183 1.0 3.0 0.00 0.01 0.00 1017.6
20260831092458 0 184 2.0 4.0 0.00 0.01 0.00 1017.7
20260831091958 0 179 2.0 3.0 0.00 0.01 0.00 1017.7
20260831091459 0 172 2.0 3.0 0.00 0.01 0.00 1017.7
20260831090500 0 181 1.0 2.0 0.00 0.01 0.00 1017.8
20260831090001 0 179 1.0 3.0 0.00 0.01 0.00 1017.8
20260831085500 0 170 1.0 2.0 0.00 0.01 0.00 1017.8
20260831083459 0 180 1.0 3.0 0.00 0.01 0.00 1017.7
20260831082959 0 178 2.0 3.0 0.00 0.01 0.00 1017.7
20260831082459 0 182 0.0 2.0 0.00 0.01 0.00 1017.6
20260831081000 0 183 0.0 2.0 0.00 0.01 0.00 1017.5
20260831080459 0 186 1.0 2.0 0.00 0.01 0.00 1017.4
20260831080003 0 186 1.0 4.0 0.00 0.01 0.00 1017.3
20260831075458 0 188 1.0 4.0 0.00 0.01 0.00 1017.3
20260831074501 0 183 2.0 3.0 0.00 0.01 0.00 1017.2
20260831072959 0 188 2.0 3.0 0.00 0.01 0.00 1017.4
20260831072458 0 179 2.0 3.0 0.00 0.01 0.00 1017.4
20260831071958 0 186 1.0 2.0 0.00 0.01 0.00 1017.4
20260831071501 0 186 1.0 2.0 0.00 0.01 0.00 1017.4
20260831070958 0 181 1.0 1.0 0.00 0.01 0.00 1017.5
20260831070458 0 185 1.0 2.0 0.00 0.01 0.00 1017.5
20260831070001 0 186 1.0 3.0 0.00 0.01 0.00 1017.5
20260831065459 0 184 2.0 4.0 0.00 0.01 0.00 1017.5
20260831064459 0 185 2.0 2.0 0.00 0.01 0.00 1017.4
20260831063959 0 186 0.0 2.0 0.00 0.01 0.00 1017.6
20260831063500 0 186 1.0 1.0 0.00 0.01 0.00 1017.7
20260831063000 0 188 0.0 1.0 0.00 0.01 0.00 1017.7
20260831062459 0 188 0.0 1.0 0.00 0.01 0.00 1017.6
20260831061958 0 188 0.0 0.0 0.00 0.01 0.00 1017.7
20260831061458 0 188 0.0 1.0 0.00 0.01 0.00 1017.8
20260831060959 0 188 0.0 1.0 0.00 0.01 0.00 1017.8
20260831060458 0 188 0.0 2.0 0.00 0.01 0.00 1017.8
20260831060001 0 188 1.0 2.0 0.00 0.01 0.00 1017.8
20260831055459 0 188 0.0 1.0 0.00 0.01 0.00 1017.8
20260831054959 0 188 0.0 1.0 0.00 0.01 0.00 1017.8
20260831054458 0 188 0.0 1.0 0.00 0.01 0.00 1017.8
20260831053959 0 188 0.0 3.0 0.00 0.01 0.00 1017.9
20260831053459 0 187 1.0 4.0 0.00 0.01 0.00 1017.9
20260831052958 0 185 2.0 4.0 0.00 0.01 0.00 1017.8
20260831052500 0 178 2.0 5.0 0.00 0.01 0.00 1017.6
20260831051959 0 193 2.0 5.0 0.00 0.01 0.00 1017.6
20260831051459 0 173 3.0 4.0 0.00 0.01 0.00 1017.6
20260831050500 0 180 2.0 4.0 0.00 0.01 0.00 1017.6
20260831050003 0 179 2.0 4.0 0.00 0.01 0.00 1017.7
20260831045503 0 181 1.0 3.0 0.00 0.01 0.00 1017.8
20260831045003 0 186 2.0 3.0 0.00 0.01 0.00 1017.8
20260831044500 0 180 2.0 3.0 0.00 0.01 0.00 1017.7
20260831044001 0 183 1.0 4.0 0.00 0.01 0.00 1017.8
20260831043500 0 181 2.0 4.0 0.00 0.01 0.00 1017.8
20260831043000 0 174 2.0 4.0 0.00 0.01 0.00 1017.8
20260831042507 0 186 3.0 5.0 0.00 0.01 0.00 1017.8
20260831042003 0 180 2.0 5.0 0.00 0.01 0.00 1017.8
20260831041502 0 182 1.0 4.0 0.00 0.01 0.00 1017.7
20260831040006 0 178 1.0 4.0 0.00 0.01 0.00 1017.6
20260831035002 0 181 3.0 5.0 0.00 0.01 0.01 1017.5
20260831034502 0 178 2.0 3.0 0.00 0.01 0.01 1017.5
20260831034001 0 175 2.0 4.0 0.00 0.01 0.01 1017.6
20260831033501 0 178 1.0 4.0 0.00 0.01 0.01 1017.6
20260831033004 0 179 1.0 3.0 0.00 0.01 0.01 1017.6
20260831032501 0 176 1.0 3.0 0.00 0.01 0.01 1017.7
20260831032002 0 179 0.0 3.0 0.00 0.01 0.01 1017.7
20260831031501 0 179 1.0 3.0 0.00 0.01 0.01 1017.6
20260831025500 0 179 0.0 2.0 0.00 0.01 0.01 1017.8
20260831024502 0 181 0.0 3.0 0.00 0.01 0.01 1017.9
20260831024002 0 181 1.0 3.0 0.00 0.01 0.01 1017.9
20260831023500 0 180 0.0 1.0 0.00 0.01 0.01 1017.8
20260831023000 0 179 0.0 3.0 0.00 0.01 0.01 1017.8
20260831022500 0 177 0.0 4.0 0.00 0.01 0.01 1017.8
20260831022001 0 179 2.0 4.0 0.00 0.01 0.01 1017.8
20260831021500 0 173 2.0 4.0 0.00 0.01 0.01 1017.8
20260831021000 0 180 2.0 4.0 0.00 0.01 0.01 1017.8
20260831020500 0 175 1.0 2.0 0.00 0.01 0.01 1017.9
20260831020003 0 177 0.0 1.0 0.00 0.01 0.01 1018.0
20260831015500 0 174 1.0 1.0 0.00 0.01 0.01 1017.9
20260831015000 0 174 0.0 0.0 0.00 0.01 0.01 1018.0
20260831014500 0 174 0.0 0.0 0.00 0.01 0.01 1018.0
20260831014003 0 174 0.0 0.0 0.00 0.01 0.01 1018.1
20260831013501 0 174 0.0 0.0 0.00 0.01 0.01 1018.0
20260831013000 0 174 0.0 0.0 0.00 0.01 0.01 1018.0
20260831012501 0 174 0.0 0.0 0.00 0.01 0.01 1017.8
20260831012007 0 174 0.0 0.0 0.00 0.01 0.01 1017.8
20260831011501 0 174 0.0 0.0 0.00 0.01 0.01 1017.7
20260831011015 0 174 0.0 0.0 0.00 0.01 0.01 1017.7
20260831010500 0 170 0.0 0.0 0.00 0.01 0.01 1017.7
20260831010004 77 141 0.0 0.0 0.00 0.01 0.01 1017.7
20260831005503 77 141 0.0 0.0 0.00 0.01 0.01 100 1017.7
20260831005001 78 141 0.0 0.0 0.00 0.01 0.01 1017.5
20260831004500 78 141 0.0 0.0 0.00 0.01 0.01 78 1017.4
20260831004000 78 141 0.0 0.0 0.00 0.01 0.01 78 1017.5
20260831003503 79 141 0.0 1.0 0.00 0.01 0.01 77 1017.5
20260831003000 79 141 0.0 2.0 0.00 0.01 0.01 77 1017.4
20260831002500 79 140 0.0 2.0 0.00 0.01 0.01 77 1017.4
20260831002002 79 147 0.0 0.0 0.00 0.01 0.01 77 1017.4
20260831001000 79 148 0.0 0.0 0.01 0.01 0.01 76 1017.4
20260831000500 79 148 0.0 0.0 0.01 0.01 0.01 75 1017.4
20260830235000 0 148 0.0 1.0 0.01 0.01 0.01 75 1017.6
20260830234501 0 148 0.0 1.0 0.01 0.01 0.01 1017.6
20260830233500 0 207 0.0 1.0 0.01 0.01 0.01 1017.7
20260830233000 81 259 0.0 0.0 0.01 0.01 0.01 1017.8
20260830232501 0 259 0.0 0.0 0.01 0.01 0.01 1017.8
20260830232001 0 258 0.0 1.0 0.01 0.01 0.01 1017.8
20260830231500 0 259 0.0 1.0 0.00 0.00 0.00 1017.8
20260830230500 0 259 0.0 0.0 0.00 0.00 0.00 1017.8
20260830225500 0 258 0.0 1.0 0.00 0.00 0.00 1017.9
20260830225002 0 259 0.0 1.0 0.00 0.00 0.00 1018.0
20260830224501 0 259 0.0 1.0 0.00 0.00 0.00 1018.1
20260830224000 0 259 0.0 1.0 0.00 0.00 0.00 1018.0
20260830223459 0 259 0.0 1.0 0.00 0.00 0.00 1018.0
20260830223000 0 260 0.0 2.0 0.00 0.00 0.00 1017.8
20260830222501 0 261 1.0 2.0 0.00 0.00 0.00 1017.8
20260830222001 0 266 1.0 2.0 0.00 0.00 0.00 1017.8
20260830221502 0 233 1.0 4.0 0.00 0.00 0.00 1017.7
20260830221000 0 264 1.0 4.0 0.00 0.00 0.00 1017.6
20260830220502 0 228 1.0 4.0 0.00 0.00 0.00 1017.7
20260830215502 0 171 2.0 4.0 0.00 0.00 0.00 1017.6
20260830215005 0 238 2.0 5.0 0.00 0.00 0.00 1017.6
20260830214503 0 227 3.0 6.0 0.00 0.00 0.00 1017.5
20260830213513 0 195 3.0 7.0 0.00 0.00 0.00 1017.5
20260830213003 0 217 3.0 7.0 0.00 0.00 0.00 1017.6
20260830212501 0 246 3.0 9.0 0.00 0.00 0.00 1017.6
20260830212001 0 200 3.0 10.0 0.00 0.00 0.00 1017.5
20260830211501 0 250 5.0 10.0 0.00 0.00 0.00 1017.4
20260830211005 0 206 5.0 8.0 0.00 0.00 0.00 1017.3
20260830210500 0 236 4.0 8.0 0.00 0.00 0.00 1017.4
20260830210006 0 172 3.0 10.0 0.00 0.00 0.00 1017.4
20260830205503 0 193 5.0 13.0 0.00 0.00 0.00 1017.3
20260830205004 0 199 5.0 11.0 0.00 0.00 0.00 1017.4
20260830204503 0 149 3.0 9.0 0.00 0.00 0.00 1017.5
20260830204000 0 179 4.0 9.0 0.00 0.00 0.00 1017.6
20260830203505 0 236 6.0 9.0 0.00 0.00 0.00 1017.7
20260830203000 0 180 6.0 9.0 0.00 0.00 0.00 1017.8
20260830202500 0 193 5.0 9.0 0.00 0.00 0.00 1017.9
20260830202009 0 196 5.0 8.0 0.00 0.00 0.00 1017.9
20260830201506 0 154 5.0 8.0 0.00 0.00 0.00 1018.0
20260830201002 0 197 4.0 8.0 0.00 0.00 0.00 1018.1